#timestamp,LO_Frequency,Hit,StdDev 
1699128015.4,286047002.0,N
1699128035.2,286047001.6,N
1699128055.0,286047001.7,N
1699128056.0,286047001.7,N
1699128075.8,286046999.7,N
1699128095.6,286047000.0,N
1699128115.5,286047000.5,N
1699128135.3,286047001.1,N
1699128155.1,286047000.8,N
1699128175.9,286046998.8,N
1699128195.7,286046998.2,N
1699128215.6,286046999.8,N
1699128235.4,286047001.9,N
1699128255.2,286046999.9,N
1699128275.1,286046999.7,N
1699128276.0,286046999.7,N
1699128295.8,286046999.9,N
1699128315.6,286047000.3,N
1699128335.5,286046999.8,N
1699128355.3,286046999.9,N
1699128375.2,286047000.4,N
1699128395.9,286046999.7,N
1699128415.7,286047000.5,N
1699128435.6,286046998.3,N
1699128455.4,286047000.9,N
1699128475.2,286047000.8,N
1699128495.1,286046998.8,N
1699128496.0,286046998.8,N
1699128515.8,286046998.4,N
1699128535.7,286047001.1,N
1699128555.5,286047001.1,N
1699128575.4,286046999.9,N
1699128595.2,286047000.7,N
1699128615.0,286046998.2,N
1699128615.9,286046998.2,N
1699128635.8,286046998.1,N
1699128655.6,286046999.7,N
1699128675.4,286046999.7,N
1699128695.3,286047000.7,N
1699128715.1,286047000.0,N
1699128735.9,286046998.5,N
1699128755.7,286047000.4,N
1699128775.5,286047000.1,N
1699128795.4,286047000.5,N
1699128815.2,286046999.7,N
1699128835.0,286047000.4,N
1699128835.9,286047000.4,N
1699128855.8,286047001.1,N
1699128875.6,286046999.1,N
1699128895.5,286046998.3,N
1699128915.3,286046998.6,N
1699128935.1,286046998.7,N
1699128955.9,286046998.8,N
1699128975.7,286047000.6,N
1699128995.6,286046998.7,N
1699129015.4,286047000.7,N
1699129035.2,286046999.9,N
1699129055.1,286047000.6,N
1699129056.0,286047000.6,N
1699129075.8,286047000.8,N
1699129095.6,286046998.7,N
1699129115.5,286047001.1,N
1699129135.3,286046998.2,N
1699129155.2,286046998.9,N
1699129175.9,286046999.3,N
1699129195.7,286046999.2,N
1699129215.6,286046999.5,N
1699129235.4,286046997.2,Y
1699129255.2,286046999.5,P
1699129275.1,286046998.4,P
1699129276.0,286046998.4,N
1699129295.8,286047000.5,N
1699129315.7,286046998.7,N
1699129335.5,286046998.5,N
1699129355.3,286047001.2,N
1699129375.2,286047001.2,N
1699129395.0,286047000.7,N
1699129395.9,286047000.7,N
1699129415.7,286047000.6,N
1699129435.6,286047000.4,N
1699129455.4,286047000.5,N
1699129475.3,286046999.7,N
1699129495.1,286047000.6,N
1699129496.0,286047000.6,N
1699129515.8,286046998.9,N
1699129535.7,286046998.2,N
1699129555.5,286047001.2,N
1699129575.3,286047000.5,N
1699129595.2,286046998.5,N
1699129615.0,286046998.8,N
1699129615.9,286046998.8,N
1699129635.8,286047000.9,N
1699129655.6,286046998.4,N
1699129675.4,286047001.2,N
1699129695.3,286046999.0,N
1699129715.1,286046999.4,N
1699129735.9,286046999.2,N
1699129755.7,286047001.1,N
1699129775.5,286046998.4,N
1699129795.4,286046999.5,N
1699129815.2,286046998.5,N
1699129835.0,286047001.2,N
1699129836.0,286047001.2,N
1699129855.8,286046998.7,N
1699129875.6,286046998.3,N
1699129895.5,286046998.5,N
1699129915.3,286047000.5,N
1699129935.1,286046999.8,N
1699129955.9,286047000.9,N
1699129975.7,286046998.5,N
1699129995.5,286046999.5,N
1699130015.4,286046999.2,N
1699130035.2,286046999.1,N
1699130055.1,286046997.4,N
1699130056.0,286046997.4,N
1699130075.8,286046996.9,N
1699130095.6,286046997.1,N
1699130115.5,286046999.3,N
1699130135.3,286046995.5,Y
1699130155.2,286046993.4,P
1699130175.9,286046996.1,N
1699130195.7,286046996.0,N
1699130215.6,286046993.3,Y
1699130235.4,286046998.3,P
1699130255.3,286046999.4,N
1699130275.1,286046996.7,N
1699130276.0,286046996.7,N
1699130295.8,286046997.5,N
1699130315.7,286046997.1,N
1699130335.5,286046999.5,N
1699130355.3,286046997.2,N
1699130375.2,286046996.9,N
1699130395.0,286046997.4,N
1699130395.9,286046997.4,N
1699130415.8,286046997.8,N
1699130435.6,286046997.8,N
1699130455.4,286046998.0,N
1699130475.3,286046993.4,Y
1699130495.1,286046997.7,P
1699130515.8,286046997.5,P
1699130535.7,286046997.5,P
1699130555.5,286046999.5,Y
1699130575.4,286046998.2,P
1699130595.2,286046998.7,P
1699130615.0,286046998.5,P
1699130615.9,286046998.5,Y
1699130635.8,286047002.4,P
1699130655.6,286047002.6,N
1699130675.5,286047001.9,N
1699130695.3,286046999.9,N
1699130715.1,286047001.2,N
1699130735.9,286047001.2,N
1699130755.7,286047000.8,N
1699130775.6,286047001.1,N
1699130795.4,286047001.2,N
1699130815.2,286046998.1,N
1699130835.1,286046999.3,N
1699130836.0,286046999.3,N
1699130855.8,286046996.6,N
1699130875.6,286046999.0,N
1699130895.5,286046996.5,N
1699130915.3,286046996.7,N
1699130935.2,286046996.8,N
1699130955.9,286046997.5,N
1699130975.7,286046996.8,N
1699130995.6,286046997.1,N
1699131015.4,286046996.8,N
1699131035.2,286046996.8,N
1699131055.1,286046997.4,N
1699131056.0,286046997.4,N
1699131075.8,286046995.5,N
1699131095.7,286046996.8,N
1699131115.5,286046997.6,N
1699131135.3,286046997.4,N
1699131155.2,286046998.0,N
1699131175.0,286046998.0,N
1699131175.9,286046998.0,N
1699131195.7,286046995.1,N
1699131215.6,286046995.3,N
1699131235.4,286046995.6,N
1699131255.3,286046998.0,N
1699131275.1,286046997.6,N
1699131276.0,286046997.6,N
1699131295.8,286046997.2,N
1699131315.7,286046998.0,N
1699131335.5,286046995.0,Y
1699131355.4,286046999.1,P
1699131375.2,286046998.9,N
1699131395.0,286046999.6,N
1699131395.9,286046999.6,N
1699131415.8,286046998.5,N
1699131435.6,286047001.0,N
1699131455.4,286047001.2,N
1699131475.3,286046998.7,N
1699131495.1,286046999.3,N
1699131515.9,286046996.8,N
1699131535.7,286046996.9,N
1699131555.5,286046998.9,N
1699131575.4,286046998.1,N
1699131595.2,286046998.4,N
